Погода в Торремолиносе

Испания     36°36′21″N   4°32′29″W
темп.,
°C
ветер,
м/с
пор.,
м/с
влажн.,
%
обл.,
%
осадки,
мм/ч
давл.,
гПа
погр.,
м
15 мая, сб
сб1523:00+19всв23725 0.0 101760
02:00+18св56765 0.0 1017110
05:00+18св44765 0.0 101672
08:00+18св23695 0.0 101731
11:00+19в226231 0.0 101766
14:00+19ю22672 0.0 1017146
17:00+19юз55670 0.0 1015167
20:00+20зюз45660 0.0 101491
16 мая, вс
вс1623:00+20зюз56700 0.0 101564
02:00+20з22600 0.0 101417
05:00+20ссв12593 0.0 101316
08:00+20с22591 0.0 101318
11:00+21ююв01600 0.0 101470
14:00+21юз54570 0.0 1013222
17:00+21зюз55580 0.0 1012295
20:00+22зюз56600 0.0 1011252
17 мая, пн
пн1723:00+23з45510 0.0 101230
02:00+23зсз44492 0.0 101127
05:00+21ссв566292 0.0 101254
08:00+21з33660 0.0 101329
11:00+22зсз33605 0.0 101481
14:00+23зюз556211 0.0 1015250
17:00+21в337537 0.0 1016141
20:00+20в567982 0.0 1016136
18 мая, вт
вт1823:00+19всв56886 0.0 1018130
02:00+18св44905 0.0 1018102
05:00+18вюв22885 0.0 101825
08:00+18всв44916 0.0 1021138
11:00+18всв45917 0.0 1022236
14:00+18в46896 0.0 1023301
17:00+19всв458788 0.0 1021287
20:00+19всв448699 0.0 1021206
19 мая, ср
ср1923:00+18всв458949 0.0 1023169
02:00+18всв459113 0.0 1023204
05:00+17всв559015 0.0 1022265
08:00+17всв46885 0.0 1023302
11:00+18всв47845 0.0 1023366
14:00+18всв57815 0.0 1023382
17:00+19всв45791 0.0 1021316
20:00+19всв45805 0.0 1021259